www.pogodaiklimat.ru
ПОГОДА в Аммане
Время
(UTC), дата
12 26.03
15 26.03
18 26.03
21 26.03
00 27.03
03 27.03
06 27.03
09 27.03
12 27.03
15 27.03
18 27.03
21 27.03
00 28.03
03 28.03
06 28.03
09 28.03
12 28.03
15 28.03
18 28.03
21 28.03
00 29.03
03 29.03
06 29.03
09 29.03
12 29.03
15 29.03
18 29.03
21 29.03
00 30.03
03 30.03
06 30.03
09 30.03
12 30.03
15 30.03
18 30.03
21 30.03
00 31.03
03 31.03
06 31.03
09 31.03
12 31.03
15 31.03
18 31.03
21 31.03
00 1.04
03 1.04
06 1.04
09 1.04
12 1.04
15 1.04
18 1.04
21 1.04
00 2.04
03 2.04
06 2.04
09 2.04
Ветер
(напр.,м/с)
Видим. Явления Облачность Т
(С)
Тd
(С)
f
(%)
Тe
(С)
Тes
(С)
Комфортность P
(гПа)
Po
(гПа)
Тmin
(С)
Tmax
(С)
R
(мм)
R24
(мм)
S
(см)
штиль 0 6000 м мгла 5/0
[Ci sp]
+20.4 +5.2 37 +21 +35 комфорт 1009.1 920.8
ЮВ 1 6000 м мгла 9/0
[Ac trans Ci sp]
+20.4 +2.8 31 +22 +22 комфорт 1007.6 919.5
З 3 6000 м мгла 8/0 2000 м
[Ac trans]
+18.4 -0.1 29 +19 +19 тепло 1008.2 920.3 +21.3
СВ 3 7000 м мгла {дождь} 6/4 1350 м
[Sc diur, vesp Ac trans]
+16.5 +4.2 44 +16 +16 тепло 1008.3 920.8
СВ 2 7000 м мгла {дождь} 6/4 1200 м
[Sc Ac trans]
+14.4 +6.2 58 +14 +14 тепло 1007.7 920.4 0.0
СВ 3 4000 м сильн. гроза, ливневой дождь 9/6 750 м
[Cb cap Ac trans]
+14.0 +8.7 70 +13 +13 тепло 1007.7 920.3
З 3 4000 м в посл. час дождь {гроза} 8/8 1200 м
[Cu Sc]
+14.2 +10.2 77 +13 +14 тепло 1007.3 919.7 +12.6 4
ЮВ 4 4000 м мгла 5/5 900 м
[Cu Sc]
+21.0 +8.1 43 +23 +29 комфорт 953.2 919.8
ЮВ 3 4000 м мгла 5/5 900 м
[Cu Sc]
+24.0 +8.6 37 +25 +30 комфорт 1005.6 919.0 4
штиль 0 6000 м мгла ясно +22.6 +7.5 38 +24 +24 комфорт 1006.0 919.1
С 2 3000 м пыль 4/0
[Ci sp]
+17.2 +9.1 59 +18 +18 тепло 1007.7 919.9 +23.6
СЗ 2 3000 м пыль 5/0
[Ac und]
+16.6 +8.3 58 +17 +17 тепло 1007.7 920.8
З 4 3000 м пыль 6/0
[Ac trans Cs]
+15.4 +4.3 47 +15 +15 тепло 1008.2 921.5
З 4 4000 м пыль 4/0
[Ac trans]
+12.2 +7.9 75 +10 +10 тепло 1009.7 922.2
З 5 3500 м пыль 4/4 750 м
[Cu med, cong]
+13.2 +8.6 74 +11 +13 тепло 1012.1 923.8 +12.0
З 5 4000 м мгла 8/8 750 м
[Cu Sc]
+19.2 +1.3 30 +19 +21 тепло 1012.5 924.9
З 8 4000 м мгла 8/8 750 м
[Cu Sc]
+15.0 +8.6 66 +13 +14 по сезону 1012.8 924.4
З 6 4000 м пыль 6/6 750 м
[Cu Sc]
+15.0 +7.2 60 +14 +14 тепло 1013.1 924.2
З 5 8000 м мгла 3/3 750 м
[Cu hum]
+11.2 +6.3 72 +9 +9 по сезону 1014.6 925.2 +17.0 0.1
СЗ 5 8000 м мгла 4/4 750 м
[Cu hum]
+9.6 +5.4 75 +6 +6 по сезону 1015.6 926.0
ЮЗ 3 8000 м мгла 3/3 900 м
[Cu hum]
+8.6 +4.2 74 +6 +6 по сезону 1014.7 925.2
З 5 8000 м дымка 4/4 900 м
[Cu hum]
+8.2 +6.5 89 +4 +4 по сезону 1014.4 924.8
З 5 8000 м мгла 4/4 750 м
[Cu med, cong]
+10.2 +6.5 78 +7 +9 по сезону 1015.6 925.4 +8.0
З 6 7000 м мгла 4/4 900 м
[Cu med, cong]
+13.4 +6.6 63 +11 +15 тепло 1014.8 925.2
З 9 8000 м мгла 4/4 900 м
[Cu med, cong]
+15.8 +4.8 48 +14 +15 тепло 1013.4 924.1
З 10 5000 м пыльный позёмок 3/0 2000 м
[Ac lent]
+15.5 -1.9 30 +13 +13 тепло 1013.1 923.7
З 13 10 км шквал 3/0 2000 м
[Ac lent]
+13.6 -2.4 33 +11 +11 тепло 1013.2 923.8 +17.0
З 9 10 км ясно +13.0 +0.7 43 +10 +10 тепло 1013.0 924.0
З 5 10 км ясно +12.5 +1.5 47 +11 +11 по сезону 1013.1 924.4
З 3 10 км ясно +11.3 +0.6 48 +10 +10 по сезону 1013.3 924.4
ЮЗ 5 10 км 5/0
[Ci fib]
+13.3 +1.5 45 +12 +15 по сезону 1013.8 924.8 +11.1
ЮЗ 3 10 км 4/0
[Ci fib]
+17.2 +1.7 35 +17 +32 опасность
простуды
1014.3 925.8
ЮЗ 6 8000 м мгла 4/0
[Ci fib]
+19.2 +2.0 32 +19 +23 тепло 1012.3 924.2
З 5 5000 м мгла 6/0
[Ac trans]
+19.0 +5.2 40 +19 +19 тепло 1011.7 923.4
штиль 0 5000 м мгла 6/0 2000 м
[As op]
+15.8 +6.3 53 +16 +16 тепло 1013.1 924.5 +21.0
штиль 0 7000 м мгла 5/0
[Ac trans]
+14.2 +6.2 59 +14 +14 тепло 1013.2 924.9
штиль 0 7000 м мгла 6/0
[Ac trans]
+13.2 +5.4 59 +13 +13 тепло 1011.6 923.6
З 3 5000 м мгла 8/8 1350 м
[Cu Sc]
+14.8 +2.2 43 +14 +14 тепло 1011.1 923.4
штиль 0 5000 м мгла 10/10 1200 м
[Cu Sc]
+16.5 +3.1 41 +17 +17 тепло 1012.3 924.2 +12.3
Ю 6 8000 м мгла 9/0 2000 м
[Ac As]
+21.8 +3.1 29 +22 +25 комфорт 1010.1 922.8
ЮЗ 5 5000 м мгла {дождь} 4/0 2000 м
[Ac cast]
+25.1 -0.6 18 +23 +28 комфорт 1007.4 920.6 0.0
З 7 4000 м пыль 5/0
[Ac trans Ci fib]
+22.2 +1.5 25 +22 +22 комфорт 1006.9 920.0
ЮВ 2 3000 м пыль 5/0
[Ci fib]
+17.6 +6.3 47 +18 +18 тепло 1008.1 920.7 +25.5 0.0
З 4 4000 м пыль ясно +14.4 +6.9 61 +13 +13 по сезону 1008.9 921.7
З 4 4000 м пыль 4/0
[Ac trans]
+13.0 +7.1 67 +11 +11 по сезону 1008.4 921.5
ЮЗ 5 4000 м пыль 5/5 750 м
[Sc diur, vesp]
+12.0 +6.8 70 +10 +10 по сезону 1008.0 920.6
З 8 5000 м пыльный позёмок 8/8 600 м
[Sc diur, vesp]
+11.4 +7.0 74 +8 +8 прохладно 1009.4 921.1 +11.4
З 13 6000 м слаб. морось 8/8 450 м
[Cu med, cong]
+13.0 +9.0 77 +9 +9 холодно 1010.6 922.0
З 7 6000 м в посл. час морось 8/8 450 м
[Cu med, cong]
+14.0 +9.3 73 +12 +12 холодно 1011.6 922.8 0.0
З 5 6000 м мгла 8/8 600 м
[Cu Sc]
+13.6 +9.5 76 +12 +12 прохладно 1013.5 924.4
З 6 7000 м мгла 5/5 600 м
[Cu med, cong]
+12.0 +8.1 77 +9 +9 прохладно 1014.3 924.8 +15.5 0.0
З 1 8000 м дымка ясно +10.4 +8.4 87 +10 +10 по сезону 1015.2 925.6
ЮЗ 2 7000 м дымка 4/0
[Ac trans]
+9.8 +7.8 87 +8 +8 по сезону 1014.2 924.7
ЮЗ 2 6000 м мгла 4/0
[Ac trans]
+10.2 +7.0 81 +9 +9 по сезону 1014.0 924.6
З 5 6000 м мгла 9/1 750 м
[Cu med, cong Ac trans Ci sp]
+11.4 +7.9 79 +9 +11 прохладно 1015.8 926.1 +9.2
ЮЗ 3 5000 м мгла 8/6 900 м
[Cu med, cong Ci sp]
+14.8 +6.9 59 +14 +20 по сезону 1016.1 926.7
Местоположение метеостанции Амман (Иордания): широта 31.98 долгота 35.98 высота над уровнем моря 779 м.
В архиве по умолчанию представлена погода в Аммане за последнюю неделю. Архивные данные за месяц целиком и за предыдущие месяцы, начиная с января 2011 года, Вы можете получить, выбрав интересующий диапазон дат из раскрывающегося списка и нажав кнопку "Найти!".
*Определитесь, кто Вы:
Внимание! Время в таблицах - всемирное. Для получения местного времени необходимо прибавить поправку, которая равна 2 ч.
Смотрите также архив погоды в соседних городах и на ближайших метеорологических станциях:
Партнеры нашего сайта:      
Пояснения к столбцам:
  • Ветер - указаны скорость ветра в м/с - средняя за 10 мин, порывы в срок и между сроками (в фигурных скобках) и направление, откуда дует ветер: С - северный,
  • СВ - северо-восточный, В - восточный, ЮВ - юго-восточный, Ю - южный, ЮЗ - юго-западный, З - западный, СЗ - северо-западный.
  • Видимость - горизонтальная дальность видимости в метрах или километрах. При видимости от 1 до 10 км при отсутствии осадков обычно наблюдается дымка, при ухудшении видимости до 1 км и менее - туман. В сухую погоду видимость может ухудшаться дымом, пылью или мглою.
  • Явления - указаны атмосферные явления, наблюдавшиеся в срок или в последний час перед сроком; фигурными скобками обозначены явления, наблюдавшиеся между сроками (за 1-3 часа до срока); квадратными скобками обозначены град или гололедные отложения с указанием их диаметра в мм.
  • Облачность - указаны через наклонную черту общая и нижняя облачность в баллах и высота нижней границы облаков в метрах; квадратными скобками обозначены формы облаков: Ci - перистые, Cs - перисто-слоистые, Cc - перисто-кучевые, Ac - высококучевые, As - высокослоистые, Sc - слоисто-кучевые, Ns - слоисто-дождевые, Cu - кучевые, Cb - кучево-дождевые. Подробнее классификацию облаков см. в Атласе облаков (PDF).
  • T - Температура воздуха - температура, измеренная на высоте 2 м над землей.
  • Td - Температура точки росы - температура, при понижении до которой содержащийся в воздухе водяной пар достигнет насыщения.
  • f - Относительная влажность воздуха - влажноcть воздуха, измеренная на высоте 2 м над землей.
  • Te - Эффективная температура - температура, которую ощущает одетый по сезону человек в тени. Характеристика душности погоды. При расчете учитывается влияние влажности воздуха и скорости ветра на теплоощущения человека.
  • Tes - Эффективная температура на солнце - температура, которую ощущает человек, с поправкой на солнечный нагрев. Характеристика знойности погоды. Зависит от высоты солнца над горизонтом, облачности и скорости ветра. Ночью, в пасмурную погоду, а также при ветре 12 м/с и более поправка равна нулю.
  • P - Атмосферное давление - приведенное к уровню моря атмосферное давление.
  • Po - Атмосферное давление - измеренное на уровне метеостанции атмосферное давление.
  • Tmin - Минимальная температура - минимум температуры воздуха на высоте 2 м над землей.
  • Tmax - Максимальная температура - максимум температуры воздуха на высоте 2 м над землей.
  • R - Количество осадков - Количество выпавших осадков за период времени, мм. При наведении курсора мыши на число - период времени, за который выпало указанное количество осадков.
  • R24 - Количество осадков - Количество выпавших осадков за 24 часа, мм.
  • S - Снежный покров - Высота снежного покрова, см. При наведении курсора мыши на число - состояние снежного покрова и степень покрытия местности в баллах.